Flag for Brazil Weather past 2 weeks in Belém, Para, Brazil

Now
86 °F

Partly sunny.


Feels Like: 93 °F
Forecast: 74 / 87 °F
Wind: 12 mph from East

Location: Belem Aeroporto

Current Time: Jan 28, 2015 at 11:18:34 AM

Latest Report: Jan 28, 2015 at 11:00 AM


Visibility: N/A

Pressure: 29.89 "Hg

Humidity: 66%

Dew point: 73 °F

Location of BelémLocation

Historic Weather in Belém — Graph

°F

Belém temperature yesterday

Maximum temperature yesterday: 90 °F (at 1:00 PM)
Minimum temperature yesterday: 75 °F (at 2:00 AM)
Average temperature yesterday: 78 °F

Past Weeks' High & Low Weather Summary

 TemperatureHumidityPressure
High90 °F (Jan 13, 12:00 PM)100% (Jan 14, 9:00 PM)29.95 "Hg (Jan 14, 9:00 PM)
Low41 °F (Jan 14, 10:00 PM)55% (Jan 13, 12:00 PM)29.74 "Hg (Jan 13, 5:00 PM)
Average79 °F85%29.87 "Hg
* Reported Jan 13 10:00 AM — Jan 28 10:00 AM, Belém, Weather by CustomWeather, © 2014

Note: Actual official high and low records may vary slightly from our data, if they occured in-between our weather recording intervals... More about our weather records

Advertising

Belém weather history for previous 24 hours

 ConditionsComfort  
Time TempWeatherWind HumidityBarometerVisibility
10:00 AM
Jan 28
82 °FPartly sunny.9 mph79%29.92 "HgN/A
9:00 AM81 °FScattered clouds.8 mph84%29.89 "HgN/A
8:00 AM77 °FPassing clouds.3 mph94%29.89 "HgN/A
7:00 AM73 °FSunny.No wind94%29.86 "Hg10 mi
6:00 AM73 °FClear.2 mph94%29.83 "Hg10 mi
5:00 AM73 °FClear.No wind100%29.83 "Hg10 mi
4:00 AM73 °FClear.2 mph94%29.77 "Hg10 mi
3:00 AM73 °FClear.2 mph100%29.83 "Hg10 mi
2:00 AM75 °FClear.3 mph94%29.83 "Hg10 mi
1:00 AM73 °FClear.2 mph94%29.86 "Hg10 mi
12:00 AM75 °FClear.2 mph89%29.86 "Hg10 mi
11:00 PM
Jan 27
75 °FClear.3 mph89%29.86 "Hg10 mi
10:00 PM75 °FPassing clouds.3 mph94%29.89 "HgN/A
9:00 PM75 °FPassing clouds.5 mph89%29.86 "HgN/A
8:00 PM75 °FPassing clouds.7 mph83%29.83 "HgN/A
7:00 PM75 °FRain. Passing clouds.10 mph94%N/A5 mi
6:00 PM77 °FPartly sunny.6 mph83%29.80 "HgN/A
5:00 PM77 °FScattered showers. Partly sunny.6 mph89%N/AN/A
4:00 PM77 °FRain. Partly sunny.8 mph94%29.80 "Hg6 mi
3:00 PM79 °FLight rain. Partly sunny.8 mph89%29.83 "Hg5 mi
2:00 PM81 °FLight rain. Partly sunny.12 mph84%29.86 "HgN/A
1:00 PM90 °FPartly sunny.5 mph55%29.86 "HgN/A
12:00 PM88 °FPartly sunny.12 mph62%29.89 "HgN/A
11:00 AM84 °FPartly sunny.9 mph70%29.92 "HgN/A
Weather by CustomWeather, © 2014

See weather overviewHow to use our weather pages